[Date Prev][Date Next][Thread Prev][Thread Next] - [Date Index][Thread Index][Author Index]

2 Line ISS Keps 9-15



ISS 
1 25544U 98067A   04258.34653995  .00017589  00000-0  14994-3 0  6844
2 25544  51.6344 230.6486 0005428 145.8114   0.5774 15.69627676332328
----
Via the sarex mailing list at AMSAT.ORG courtesy of AMSAT-NA.
To unsubscribe, send "unsubscribe sarex" to Majordomo@amsat.org



AMSAT Top AMSAT Home